Location: Newark
(20.1200°S, 168.9600°E)
Time: 07:38:50
(UTC+00:00)

Hubble Space Telescope - Pass Details

Date: 23 November 2019
Orbit: 536 x 540 km, 28.5° (Epoch: 07 December)

Event Time Altitude Azimuth Distance (km) Brightness Sun altitude
Exits shadow 16:28:44 39° 256° (WSW) 823 1.3 -19.0°
Maximum altitude 16:30:00 57° 198° (SSW) 639 1.1 -18.8°
Drops below altitude 10° 16:34:06 10° 119° (ESE) 1,799 4.7 -18.0°
Sets 16:36:24 0° 115° (ESE) 2,692 6.1 -17.5°
